When you browse on this site, cookies collect data to enhance your experience and personalize the content and advertising you see.
Visit our Privacy Policy to learn more. By continuing to use the site, you agree to this use of cookies and data.
  • în România
  • Lista ţărilor
  • Pe 7 zile
  • Temperatura apei
  • Hartă satelitară
  • Meteo pe hartă
  • Widget-uri
  • user-avatar
    Intrare

    Meteo pe oră la Colón

    Astăzi, 19 Iulie, Vineri

    Timp Temperatura Precipitaţii Vânt Presiune Umiditate
    00:00 +27°C° 0.6 mm 2 m/s 757 mmHg 93%
    01:00 +27°C° 0.6 mm 2 m/s 756 mmHg 93%
    02:00 +27°C° 0.4 mm 2 m/s 756 mmHg 94%
    03:00 +27°C° 0.4 mm 2 m/s 756 mmHg 94%
    04:00 +27°C° 0.4 mm 2 m/s 755 mmHg 94%
    05:00 +27°C° 0.5 mm 2 m/s 756 mmHg 94%
    06:00 +27°C° 0.5 mm 2 m/s 756 mmHg 94%
    07:00 +27°C° 0.5 mm 2 m/s 756 mmHg 94%
    08:00 +28°C° 0 mm 1 m/s 756 mmHg 87%
    09:00 +30°C° 0 mm 1 m/s 757 mmHg 80%
    10:00 +32°C° 0 mm 1 m/s 757 mmHg 73%
    11:00 +32°C° 0.4 mm 1 m/s 756 mmHg 72%
    12:00 +32°C° 0.4 mm 2 m/s 756 mmHg 72%
    13:00 +33°C° 0.4 mm 3 m/s 756 mmHg 72%
    14:00 +31°C° 1 mm 3 m/s 755 mmHg 77%
    15:00 +30°C° 1 mm 3 m/s 755 mmHg 83%
    16:00 +29°C° 1 mm 3 m/s 754 mmHg 89%
    17:00 +29°C° 0.4 mm 3 m/s 754 mmHg 90%
    18:00 +29°C° 0.4 mm 3 m/s 755 mmHg 92%
    19:00 +28°C° 0.4 mm 3 m/s 755 mmHg 93%
    20:00 +28°C° 0.4 mm 3 m/s 755 mmHg 94%
    21:00 +28°C° 0.4 mm 2 m/s 756 mmHg 95%
    22:00 +28°C° 0.4 mm 2 m/s 756 mmHg 95%
    23:00 +28°C° 0.1 mm 2 m/s 756 mmHg 95%

    Mâine, 20 Iulie, Sâmbătă

    Timp Temperatura Precipitaţii Vânt Presiune Umiditate
    00:00 +27°C° 0.1 mm 2 m/s 756 mmHg 95%
    01:00 +27°C° 0.1 mm 2 m/s 756 mmHg 96%
    02:00 +27°C° 0.1 mm 2 m/s 755 mmHg 95%
    03:00 +27°C° 0.1 mm 2 m/s 755 mmHg 95%
    04:00 +27°C° 0.1 mm 2 m/s 754 mmHg 95%
    05:00 +27°C° 0.4 mm 2 m/s 755 mmHg 95%
    06:00 +27°C° 0.4 mm 2 m/s 755 mmHg 94%
    07:00 +28°C° 0.4 mm 2 m/s 755 mmHg 94%
    08:00 +29°C° 1.1 mm 2 m/s 756 mmHg 90%
    09:00 +30°C° 1.1 mm 2 m/s 756 mmHg 87%
    10:00 +31°C° 1.1 mm 3 m/s 756 mmHg 84%
    11:00 +31°C° 1.2 mm 3 m/s 756 mmHg 82%
    12:00 +31°C° 1.2 mm 3 m/s 755 mmHg 81%
    13:00 +31°C° 1.2 mm 3 m/s 755 mmHg 80%
    14:00 +31°C° 0.5 mm 3 m/s 754 mmHg 82%
    15:00 +30°C° 0.5 mm 3 m/s 754 mmHg 84%
    16:00 +30°C° 0.5 mm 3 m/s 754 mmHg 87%
    17:00 +29°C° 0.1 mm 3 m/s 754 mmHg 89%
    18:00 +29°C° 0.1 mm 3 m/s 754 mmHg 91%
    19:00 +28°C° 0.1 mm 2 m/s 754 mmHg 93%
    20:00 +28°C° 0 mm 2 m/s 755 mmHg 93%
    21:00 +28°C° 0 mm 2 m/s 755 mmHg 94%
    22:00 +28°C° 0 mm 2 m/s 756 mmHg 95%
    23:00 +28°C° 0.2 mm 2 m/s 756 mmHg 95%

    Poimâine, 21 Iulie, Duminică

    Timp Temperatura Precipitaţii Vânt Presiune Umiditate
    00:00 +27°C° 0.2 mm 2 m/s 755 mmHg 95%
    01:00 +27°C° 0.2 mm 2 m/s 755 mmHg 96%
    02:00 +27°C° 1.3 mm 2 m/s 755 mmHg 96%
    03:00 +27°C° 1.3 mm 2 m/s 755 mmHg 96%
    04:00 +27°C° 1.3 mm 2 m/s 754 mmHg 96%
    05:00 +27°C° 0.8 mm 2 m/s 755 mmHg 96%
    06:00 +27°C° 0.8 mm 2 m/s 755 mmHg 95%
    07:00 +27°C° 0.8 mm 2 m/s 755 mmHg 95%
    08:00 +28°C° 0.8 mm 2 m/s 756 mmHg 90%
    09:00 +30°C° 0.8 mm 2 m/s 756 mmHg 85%
    10:00 +31°C° 0.8 mm 2 m/s 756 mmHg 80%
    11:00 +31°C° 0.4 mm 3 m/s 756 mmHg 80%
    12:00 +33°C° 0.4 mm 3 m/s 756 mmHg 79%
    13:00 +33°C° 0.4 mm 4 m/s 755 mmHg 79%
    14:00 +31°C° 1.3 mm 3 m/s 755 mmHg 83%
    15:00 +30°C° 1.3 mm 3 m/s 754 mmHg 87%
    16:00 +29°C° 1.3 mm 3 m/s 754 mmHg 92%
    17:00 +29°C° 0.9 mm 3 m/s 754 mmHg 92%
    18:00 +28°C° 0.9 mm 2 m/s 755 mmHg 93%
    19:00 +28°C° 0.9 mm 2 m/s 755 mmHg 94%
    20:00 +28°C° 1.1 mm 2 m/s 755 mmHg 95%
    21:00 +28°C° 1.1 mm 2 m/s 756 mmHg 95%
    22:00 +27°C° 1.1 mm 2 m/s 756 mmHg 95%
    23:00 +27°C° 1 mm 2 m/s 756 mmHg 95%

    22 Iulie, Luni

    Timp Temperatura Precipitaţii Vânt Presiune Umiditate
    00:00 +27°C° 1 mm 2 m/s 756 mmHg 95%
    01:00 +27°C° 1 mm 2 m/s 756 mmHg 95%
    02:00 +27°C° 0.5 mm 2 m/s 756 mmHg 95%
    03:00 +27°C° 0.5 mm 1 m/s 755 mmHg 95%
    04:00 +27°C° 0.5 mm 1 m/s 755 mmHg 95%
    05:00 +27°C° 0.1 mm 1 m/s 755 mmHg 95%
    06:00 +27°C° 0.1 mm 1 m/s 756 mmHg 95%
    07:00 +27°C° 0.1 mm 1 m/s 756 mmHg 94%
    08:00 +28°C° 0.3 mm 1 m/s 757 mmHg 92%
    09:00 +29°C° 0.3 mm 2 m/s 757 mmHg 90%
    10:00 +29°C° 0.3 mm 2 m/s 757 mmHg 87%
    11:00 +30°C° 1.1 mm 2 m/s 757 mmHg 87%
    12:00 +30°C° 1.1 mm 2 m/s 757 mmHg 87%
    13:00 +30°C° 1.1 mm 2 m/s 756 mmHg 87%
    14:00 +30°C° 2.6 mm 2 m/s 756 mmHg 88%
    15:00 +29°C° 2.6 mm 2 m/s 756 mmHg 89%
    16:00 +29°C° 2.6 mm 1 m/s 755 mmHg 90%
    17:00 +28°C° 1.8 mm 1 m/s 756 mmHg 92%
    18:00 +27°C° 1.8 mm 1 m/s 756 mmHg 93%
    19:00 +27°C° 1.8 mm 1 m/s 756 mmHg 94%
    20:00 +27°C° 0.6 mm 1 m/s 757 mmHg 94%
    21:00 +26°C° 0.6 mm 2 m/s 757 mmHg 95%
    22:00 +26°C° 0.6 mm 2 m/s 758 mmHg 95%
    23:00 +26°C° 0.2 mm 2 m/s 758 mmHg 95%

    23 Iulie, Marţi

    Timp Temperatura Precipitaţii Vânt Presiune Umiditate
    00:00 +26°C° 0.2 mm 2 m/s 757 mmHg 95%
    01:00 +26°C° 0.2 mm 2 m/s 757 mmHg 95%
    02:00 +26°C° 0.6 mm 2 m/s 757 mmHg 95%
    03:00 +26°C° 0.6 mm 1 m/s 757 mmHg 95%
    04:00 +26°C° 0.6 mm 1 m/s 756 mmHg 95%
    05:00 +26°C° 2.1 mm 1 m/s 756 mmHg 95%
    06:00 +26°C° 2.1 mm 1 m/s 757 mmHg 96%
    07:00 +26°C° 2.1 mm 2 m/s 757 mmHg 96%
    08:00 +27°C° 2.2 mm 2 m/s 757 mmHg 95%
    09:00 +27°C° 2.2 mm 2 m/s 758 mmHg 93%
    10:00 +28°C° 2.2 mm 1 m/s 758 mmHg 92%
    11:00 +28°C° 2.3 mm 2 m/s 758 mmHg 92%
    12:00 +28°C° 2.3 mm 2 m/s 757 mmHg 91%
    13:00 +28°C° 2.3 mm 3 m/s 757 mmHg 91%
    14:00 +28°C° 1.5 mm 2 m/s 756 mmHg 92%
    15:00 +28°C° 1.5 mm 2 m/s 756 mmHg 92%
    16:00 +28°C° 1.5 mm 2 m/s 756 mmHg 93%
    17:00 +27°C° 0.8 mm 2 m/s 756 mmHg 94%
    18:00 +27°C° 0.8 mm 2 m/s 757 mmHg 95%
    19:00 +26°C° 0.8 mm 3 m/s 757 mmHg 96%
    20:00 +26°C° 0 mm 3 m/s 757 mmHg 96%
    21:00 +26°C° 0 mm 3 m/s 758 mmHg 96%
    22:00 +26°C° 0 mm 3 m/s 758 mmHg 95%
    23:00 +26°C° 0 mm 3 m/s 758 mmHg 96%

    24 Iulie, Miercuri

    Timp Temperatura Precipitaţii Vânt Presiune Umiditate
    00:00 +26°C° 0 mm 3 m/s 757 mmHg 96%
    01:00 +26°C° 0 mm 3 m/s 757 mmHg 96%
    02:00 +26°C° 0 mm 3 m/s 757 mmHg 96%
    03:00 +26°C° 0 mm 3 m/s 757 mmHg 96%
    04:00 +26°C° 0 mm 3 m/s 756 mmHg 96%
    05:00 +26°C° 0.1 mm 2 m/s 756 mmHg 96%
    06:00 +26°C° 0.1 mm 2 m/s 757 mmHg 95%
    07:00 +26°C° 0.1 mm 2 m/s 757 mmHg 95%
    08:00 +27°C° 0.4 mm 3 m/s 757 mmHg 91%
    09:00 +29°C° 0.4 mm 3 m/s 757 mmHg 87%
    10:00 +30°C° 0.4 mm 4 m/s 758 mmHg 83%
    11:00 +30°C° 1.5 mm 4 m/s 757 mmHg 85%
    12:00 +30°C° 1.5 mm 4 m/s 757 mmHg 86%
    13:00 +29°C° 1.5 mm 4 m/s 757 mmHg 87%
    14:00 +29°C° 0.4 mm 3 m/s 756 mmHg 88%
    15:00 +29°C° 0.4 mm 3 m/s 756 mmHg 88%
    16:00 +28°C° 0.4 mm 2 m/s 755 mmHg 89%
    17:00 +28°C° 0.4 mm 2 m/s 756 mmHg 90%
    18:00 +27°C° 0.4 mm 2 m/s 756 mmHg 92%
    19:00 +27°C° 0.4 mm 1 m/s 756 mmHg 93%
    20:00 +27°C° 0.1 mm 2 m/s 757 mmHg 94%
    21:00 +27°C° 0.1 mm 2 m/s 757 mmHg 94%
    22:00 +26°C° 0.1 mm 2 m/s 757 mmHg 95%
    23:00 +26°C° 0 mm 2 m/s 757 mmHg 95%
    Arată mai mult